Weather History for Renton, WA

Change the Weather History Date:

Sunday, May 26, 2013

  Actual Average Record
Temperature  
Mean Temperature 58 °F -  
Max Temperature 64 °F 65 °F 90 °F (2005)
Min Temperature 51 °F 49 °F 46 °F (1999)
Degree Days  
Heating Degree Days 8    
Growing Degree Days 8 (Base 50)    
Moisture  
Dew Point 51 °F    
Average Humidity 81    
Maximum Humidity 94    
Minimum Humidity 56    
Precipitation  
Precipitation 0.05 in - - ()
Sea Level Pressure  
Sea Level Pressure 30.00 in    
Wind  
Wind Speed 3 mph (SSW)    
Max Wind Speed 9 mph    
Max Gust Speed -    
Visibility 10 miles    
Events Rain    
Averages and records for this station are not official NWS values.
T = Trace of Precipitation, MM = Missing Value Source: NWS Daily Summary

Daily Weather History Graph

Daily Weather History Graph

Search for Another Location

Airport:

Trip Planner

Search our weather history database for the weather conditions in past years. The results will help you decide how hot, cold, wet, or windy it might be!

Date:

Astronomy

May. 26, 2013 Rise Set
Actual Time 5:19 AM PDT 8:52 PM PDT
Civil Twilight 4:41 AM PDT 9:31 PM PDT
Nautical Twilight 3:50 AM PDT 10:22 PM PDT
Astronomical Twilight 2:42 AM PDT 11:31 PM PDT
Moon 10:42 PM PDT (5/26) 6:56 AM PDT (5/26)
Length of Visible Light 16h 49m
Length of Day
15h 32m
Waning Gibbous, 96% of the Moon is Illuminated
May 26
Waning Gibbous
May 31
Last Quarter
Jun 8
New
Jun 16
First Quarter
Jun 23
Full

Hourly Weather History & Observations

Time (PDT) Temp. Dew Point Humidity Pressure Visibility Wind Dir Wind Speed Gust Speed Precip Events Conditions
12:53 AM 54.0 °F 50.0 °F 86% 29.99 in 10.0 mi NW 5.8 mph - N/A   Mostly Cloudy
1:53 AM 53.1 °F 50.0 °F 89% 29.98 in 10.0 mi Calm Calm - N/A   Mostly Cloudy
2:53 AM 54.0 °F 48.9 °F 83% 29.97 in 10.0 mi NW 5.8 mph - N/A   Overcast
3:53 AM 53.1 °F 50.0 °F 89% 29.97 in 10.0 mi NW 5.8 mph - N/A   Overcast
4:53 AM 53.1 °F 50.0 °F 89% 29.97 in 10.0 mi West 3.5 mph - 0.00 in   Overcast
5:53 AM 52.0 °F 50.0 °F 93% 29.98 in 10.0 mi Calm Calm - 0.00 in   Overcast
6:53 AM 52.0 °F 50.0 °F 93% 29.99 in 10.0 mi Calm Calm - 0.01 in   Overcast
7:18 AM 51.8 °F 50.0 °F 94% 29.98 in 10.0 mi Calm Calm - N/A   Overcast
7:35 AM 51.8 °F 50.0 °F 94% 29.98 in 10.0 mi Calm Calm - N/A   Overcast
7:53 AM 53.1 °F 50.0 °F 89% 30.00 in 6.0 mi Calm Calm - 0.00 in Rain Light Rain
8:53 AM 53.1 °F 51.1 °F 93% 30.01 in 4.0 mi Calm Calm - 0.02 in Rain Light Rain
9:53 AM 54.0 °F 51.1 °F 90% 30.01 in 8.0 mi Calm Calm - 0.01 in Rain Light Rain
10:53 AM 55.9 °F 51.1 °F 84% 30.01 in 10.0 mi SSE 3.5 mph - 0.00 in   Overcast
11:53 AM 59.0 °F 52.0 °F 78% 30.00 in 10.0 mi ESE 4.6 mph - N/A   Overcast
12:02 PM 59.0 °F 51.8 °F 77% 29.99 in 9.0 mi SSW 5.8 mph - N/A   Overcast
12:35 PM 59.0 °F 51.8 °F 77% 29.99 in 10.0 mi Variable 3.5 mph - 0.00 in   Overcast
12:53 PM 60.1 °F 52.0 °F 75% 30.01 in 10.0 mi Variable 4.6 mph - 0.00 in   Overcast
1:53 PM 63.0 °F 50.0 °F 63% 30.00 in 10.0 mi South 9.2 mph - N/A   Overcast
2:53 PM 64.0 °F 48.0 °F 56% 29.99 in 10.0 mi Variable 5.8 mph - 0.00 in   Mostly Cloudy
3:53 PM 63.0 °F 50.0 °F 63% 30.00 in 10.0 mi WSW 6.9 mph - 0.00 in Rain Light Rain
4:53 PM 62.1 °F 48.9 °F 62% 30.00 in 10.0 mi SW 4.6 mph - 0.00 in   Overcast
5:53 PM 63.0 °F 50.0 °F 63% 30.01 in 10.0 mi SSW 4.6 mph - N/A   Overcast
6:53 PM 62.1 °F 50.0 °F 65% 30.00 in 10.0 mi Variable 3.5 mph - N/A   Overcast
7:53 PM 60.1 °F 51.1 °F 72% 30.01 in 10.0 mi SW 4.6 mph - N/A   Overcast
8:53 PM 57.9 °F 54.0 °F 87% 30.01 in 10.0 mi Calm Calm - 0.01 in   Overcast
9:53 PM 57.0 °F 53.1 °F 87% 30.01 in 10.0 mi South 4.6 mph - N/A   Overcast
10:53 PM 55.9 °F 53.1 °F 90% 30.01 in 10.0 mi SSE 4.6 mph - N/A   Overcast
11:53 PM 55.9 °F 51.1 °F 84% 29.99 in 10.0 mi SSE 3.5 mph - 0.00 in   Overcast